Weather History for KOLM - August, 2014

Change the Weather History Date:

Sunday, August 31, 2014

  Actual Average Record
Temperature  
Mean Temperature 62 °F 62 °F  
Max Temperature 72 °F 76 °F 94 °F (1987)
Min Temperature 52 °F 49 °F 38 °F (1964)
Degree Days  
Heating Degree Days 3 3  
Month to date heating degree days 20 69  
Since 1 June heating degree days 208 338  
Since 1 July heating degree days 53 150  
Cooling Degree Days 0 1  
Month to date cooling degree days 83 42  
Year to date cooling degree days 181 99  
Since 1 June cooling degree days 180 96  
Growing Degree Days 14 (Base 50)    
Moisture  
Dew Point 52 °F    
Average Humidity 90    
Maximum Humidity 93    
Minimum Humidity 86    
Precipitation  
Precipitation 0.00 in 0.05 in 0.71 in (1961)
Month to date precipitation 1.45 0.94  
Year to date precipitation 32.41 27.60  
Sea Level Pressure  
Sea Level Pressure 30.05 in    
Wind  
Wind Speed 5 mph (SW)    
Max Wind Speed 12 mph    
Max Gust Speed 15 mph    
Visibility 10 miles    
Events      
T = Trace of Precipitation, MM = Missing Value Source: NWS Daily Summary

Daily Weather History Graph

Daily Weather History Graph

Search for Another Location

Airport or City:

Trip Planner

Search our weather history database for the weather conditions in past years. The results will help you decide how hot, cold, wet, or windy it might be!

Date:

Astronomy

Aug. 31, 2014 Rise Set
Actual Time 6:29 AM PDT 7:52 PM PDT
Civil Twilight 5:58 AM PDT 8:24 PM PDT
Nautical Twilight 5:19 AM PDT 9:02 PM PDT
Astronomical Twilight 4:38 AM PDT 9:43 PM PDT
Moon 12:45 PM PDT (8/31) 10:47 PM PDT (8/31)
Length of Visible Light 14h 26m
Length of Day
13h 23m
Waxing Crescent, 33% of the Moon is Illuminated
Aug 31
Waxing Crescent
Sep 2
First Quarter
Sep 8
Full
Sep 15
Last Quarter
Sep 23
New

Hourly Weather History & Observations

Time (PDT) Temp. Dew Point Humidity Pressure Visibility Wind Dir Wind Speed Gust Speed Precip Events Conditions
12:54 AM 57.0 °F 53.1 °F 87% 30.00 in 10.0 mi SSW 9.2 mph - N/A   Clear
1:54 AM 55.9 °F 53.1 °F 90% 30.00 in 10.0 mi South 9.2 mph - N/A   Clear
2:54 AM 55.0 °F 53.1 °F 93% 30.01 in 10.0 mi South 6.9 mph - N/A   Clear
3:54 AM 55.9 °F 53.1 °F 90% 30.03 in 10.0 mi SSW 8.1 mph - N/A   Overcast
4:54 AM 55.0 °F 52.0 °F 89% 30.02 in 10.0 mi SSW 9.2 mph - N/A   Mostly Cloudy
5:54 AM 55.9 °F 53.1 °F 90% 30.03 in 10.0 mi South 5.8 mph - N/A   Overcast
6:54 AM 55.9 °F 53.1 °F 90% 30.05 in 10.0 mi Calm Calm - N/A   Overcast
7:54 AM 57.0 °F 53.1 °F 87% 30.06 in 10.0 mi West 3.5 mph - N/A   Overcast
8:54 AM 60.1 °F 54.0 °F 80% 30.06 in 10.0 mi SW 8.1 mph - N/A   Mostly Cloudy
9:54 AM 63.0 °F 55.0 °F 75% 30.06 in 10.0 mi SSW 8.1 mph - N/A   Mostly Cloudy
10:54 AM 64.9 °F 55.0 °F 70% 30.07 in 10.0 mi Variable 6.9 mph - N/A   Mostly Cloudy
11:33 AM 64.9 °F 53.1 °F 65% 30.07 in 10.0 mi SSW 6.9 mph - N/A   Overcast
11:47 AM 64.9 °F 53.1 °F 65% 30.07 in 10.0 mi SW 5.8 mph - N/A   Mostly Cloudy
11:54 AM 66.0 °F 53.1 °F 63% 30.07 in 10.0 mi SW 9.2 mph - N/A   Mostly Cloudy
12:54 PM 66.9 °F 52.0 °F 59% 30.06 in 10.0 mi Calm Calm - N/A   Overcast
1:54 PM 68.0 °F 51.1 °F 55% 30.06 in 10.0 mi Variable 3.5 mph - N/A   Mostly Cloudy
2:54 PM 70.0 °F 50.0 °F 49% 30.05 in 10.0 mi West 3.5 mph - N/A   Mostly Cloudy
3:54 PM 71.1 °F 48.0 °F 44% 30.04 in 10.0 mi WNW 9.2 mph - N/A   Mostly Cloudy
4:54 PM 71.6 °F 48.2 °F 43% 30.03 in 10.0 mi WSW 9.2 mph - N/A   Clear
5:54 PM 69.1 °F 48.9 °F 49% 30.03 in 10.0 mi West 9.2 mph - N/A   Clear
6:54 PM 68.0 °F 50.0 °F 52% 30.04 in 10.0 mi West 3.5 mph - N/A   Clear
7:54 PM 64.0 °F 48.9 °F 58% 30.05 in 10.0 mi Calm Calm - N/A   Clear
8:54 PM 61.0 °F 52.0 °F 72% 30.06 in 10.0 mi SSW 3.5 mph - N/A   Overcast
9:54 PM 60.1 °F 52.0 °F 75% 30.06 in 10.0 mi Calm Calm - N/A   Overcast
10:54 PM 60.8 °F 51.8 °F 72% 30.07 in 10.0 mi Calm Calm - N/A   Overcast
11:54 PM 55.0 °F 52.0 °F 89% 30.07 in 10.0 mi South 3.5 mph - N/A   Clear